Voltar ao catálogo

KUIPER-00129

AtivoComunicaçõesLEO
NORAD 65958·PAYLOAD·🇺🇸 United States

Lançado Oct 14, 2025 de Cape Canaveral Space Force Station

Loading…

Próximas Passagens (próximas 24 horas)

TLE

AtualizadoSource: CelesTrak SupGP

Época: Sep 14, 2026, 21:16 UTC

1 65958C 25228M   26257.88673611  .00001757  00000+0  23002-3 0  2570
2 65958  51.8993 231.4808 0000707  66.6657 256.5147 14.79928201    10

Acompanhe KUIPER-00129 em tempo real com AllMySat

Download on the App Store